TimeCST,TemperatureF,Dew PointF,Humidity,Sea Level PressureIn,VisibilityMPH,Wind Direction,Wind SpeedMPH,Gust SpeedMPH,PrecipitationIn,Events,Conditions,WindDirDegrees,DateUTC
12:14 AM,26.6,24.8,93,30.07,10.0,North,20.7,31.1,N/A,,Overcast,10,2013-11-21 06:14:00
12:34 AM,24.8,23.0,93,30.09,10.0,North,19.6,27.6,N/A,,Overcast,360,2013-11-21 06:34:00
12:54 AM,24.8,21.2,86,30.09,10.0,North,16.1,21.9,N/A,,Overcast,360,2013-11-21 06:54:00
1:14 AM,24.8,21.2,86,30.10,10.0,North,18.4,28.8,N/A,,Overcast,360,2013-11-21 07:14:00
1:34 AM,24.8,21.2,86,30.12,10.0,North,12.7,26.5,N/A,,Overcast,360,2013-11-21 07:34:00
1:54 AM,23.0,21.2,93,30.13,10.0,North,15.0,-,N/A,,Overcast,350,2013-11-21 07:54:00
2:14 AM,23.0,21.2,93,30.16,10.0,North,16.1,24.2,N/A,,Overcast,360,2013-11-21 08:14:00
2:34 AM,23.0,21.2,93,30.17,10.0,North,15.0,26.5,N/A,,Overcast,360,2013-11-21 08:34:00
2:54 AM,21.2,21.2,100,30.18,10.0,North,18.4,31.1,N/A,,Overcast,360,2013-11-21 08:54:00
3:14 AM,21.2,19.4,93,30.19,10.0,North,23.0,31.1,N/A,,Overcast,360,2013-11-21 09:14:00
3:34 AM,21.2,19.4,93,30.19,10.0,North,25.3,29.9,N/A,,Overcast,360,2013-11-21 09:34:00
3:54 AM,21.2,19.4,93,30.20,10.0,North,17.3,26.5,N/A,,Overcast,360,2013-11-21 09:54:00
4:14 AM,21.2,17.6,86,30.20,10.0,North,23.0,29.9,N/A,,Overcast,360,2013-11-21 10:14:00
4:34 AM,21.2,17.6,86,30.21,10.0,North,26.5,33.4,N/A,,Overcast,360,2013-11-21 10:34:00
4:54 AM,19.4,15.8,86,30.23,10.0,North,21.9,29.9,N/A,,Overcast,360,2013-11-21 10:54:00
5:14 AM,19.4,15.8,86,30.24,10.0,North,21.9,29.9,N/A,,Overcast,10,2013-11-21 11:14:00
5:34 AM,19.4,14.0,80,30.24,10.0,North,23.0,31.1,N/A,,Overcast,360,2013-11-21 11:34:00
5:54 AM,19.4,14.0,80,30.26,10.0,North,24.2,28.8,N/A,,Overcast,360,2013-11-21 11:54:00
6:14 AM,19.4,14.0,80,30.28,10.0,North,21.9,32.2,N/A,,Overcast,360,2013-11-21 12:14:00
6:34 AM,19.4,14.0,80,30.29,10.0,North,21.9,28.8,N/A,,Overcast,360,2013-11-21 12:34:00
6:54 AM,19.4,14.0,80,30.29,10.0,North,25.3,33.4,N/A,,Overcast,10,2013-11-21 12:54:00
7:14 AM,19.4,14.0,80,30.31,10.0,North,23.0,31.1,N/A,,Overcast,10,2013-11-21 13:14:00
7:34 AM,19.4,12.2,74,30.33,10.0,North,21.9,28.8,N/A,,Mostly Cloudy,360,2013-11-21 13:34:00
7:54 AM,17.6,12.2,79,30.34,10.0,North,21.9,29.9,N/A,,Scattered Clouds,10,2013-11-21 13:54:00
8:14 AM,17.6,12.2,79,30.35,10.0,North,23.0,31.1,N/A,,Scattered Clouds,10,2013-11-21 14:14:00
8:34 AM,19.4,12.2,74,30.35,10.0,North,19.6,28.8,N/A,,Mostly Cloudy,10,2013-11-21 14:34:00
8:54 AM,19.4,12.2,74,30.36,10.0,North,20.7,28.8,N/A,,Mostly Cloudy,360,2013-11-21 14:54:00
9:13 AM,19.4,12.2,74,30.36,10.0,North,21.9,28.8,N/A,,Mostly Cloudy,10,2013-11-21 15:13:00
9:34 AM,19.4,12.2,74,30.36,10.0,NNE,24.2,31.1,N/A,,Scattered Clouds,20,2013-11-21 15:34:00
9:54 AM,19.4,12.2,74,30.37,10.0,North,21.9,34.5,N/A,,Clear,10,2013-11-21 15:54:00
10:14 AM,19.4,14.0,80,30.37,10.0,NNE,19.6,28.8,N/A,,Scattered Clouds,20,2013-11-21 16:14:00
10:34 AM,19.4,12.2,74,30.38,10.0,North,25.3,34.5,N/A,,Scattered Clouds,10,2013-11-21 16:34:00
10:54 AM,19.4,12.2,74,30.40,10.0,North,19.6,33.4,N/A,,Scattered Clouds,10,2013-11-21 16:54:00
11:14 AM,21.2,14.0,74,30.40,10.0,NNE,20.7,28.8,N/A,,Scattered Clouds,20,2013-11-21 17:14:00
11:34 AM,19.4,15.8,86,30.41,4.0,NNE,20.7,29.9,N/A,Snow,Light Snow,20,2013-11-21 17:34:00
11:54 AM,19.4,15.8,86,30.41,2.5,North,16.1,27.6,N/A,Snow,Light Snow,10,2013-11-21 17:54:00
12:14 PM,21.2,15.8,80,30.41,3.0,North,18.4,27.6,N/A,Snow,Light Snow,10,2013-11-21 18:14:00
12:34 PM,21.2,15.8,80,30.41,10.0,North,20.7,29.9,N/A,,Mostly Cloudy,10,2013-11-21 18:34:00
12:54 PM,21.2,15.8,80,30.41,10.0,North,20.7,25.3,N/A,Snow,Light Snow,10,2013-11-21 18:54:00
1:14 PM,19.4,15.8,86,30.42,5.0,North,20.7,27.6,N/A,Snow,Light Snow,360,2013-11-21 19:14:00
1:34 PM,21.2,15.8,80,30.42,5.0,North,23.0,29.9,N/A,,Haze,10,2013-11-21 19:34:00
1:54 PM,21.2,14.0,74,30.42,10.0,North,18.4,28.8,N/A,,Scattered Clouds,360,2013-11-21 19:54:00
2:14 PM,21.2,12.2,68,30.43,10.0,North,24.2,29.9,N/A,,Mostly Cloudy,10,2013-11-21 20:14:00
2:34 PM,21.2,12.2,68,30.43,10.0,North,19.6,26.5,N/A,,Scattered Clouds,10,2013-11-21 20:34:00
2:54 PM,21.2,12.2,68,30.44,10.0,North,23.0,27.6,N/A,,Scattered Clouds,10,2013-11-21 20:54:00
3:14 PM,19.4,12.2,74,30.45,10.0,North,20.7,27.6,N/A,,Mostly Cloudy,10,2013-11-21 21:14:00
3:34 PM,19.4,10.4,68,30.46,10.0,North,20.7,26.5,N/A,,Overcast,10,2013-11-21 21:34:00
3:54 PM,19.4,10.4,68,30.47,10.0,North,20.7,26.5,N/A,,Scattered Clouds,10,2013-11-21 21:54:00
4:14 PM,19.4,10.4,68,30.48,10.0,NNE,18.4,27.6,N/A,,Mostly Cloudy,20,2013-11-21 22:14:00
4:34 PM,19.4,10.4,68,30.49,10.0,North,19.6,27.6,N/A,,Overcast,10,2013-11-21 22:34:00
4:54 PM,19.4,10.4,68,30.50,10.0,North,20.7,27.6,N/A,,Overcast,10,2013-11-21 22:54:00
5:14 PM,19.4,10.4,68,30.51,10.0,North,16.1,23.0,N/A,,Overcast,10,2013-11-21 23:14:00
5:34 PM,19.4,10.4,68,30.52,10.0,North,17.3,-,N/A,,Overcast,360,2013-11-21 23:34:00
5:54 PM,17.6,10.4,73,30.52,10.0,North,19.6,25.3,N/A,,Overcast,10,2013-11-21 23:54:00
6:14 PM,17.6,10.4,73,30.53,10.0,North,20.7,25.3,N/A,,Overcast,360,2013-11-22 00:14:00
6:34 PM,17.6,10.4,73,30.54,10.0,North,15.0,26.5,N/A,,Overcast,10,2013-11-22 00:34:00
6:54 PM,17.6,10.4,73,30.54,10.0,North,18.4,26.5,N/A,,Overcast,10,2013-11-22 00:54:00
7:13 PM,17.6,10.4,73,30.54,10.0,North,19.6,26.5,N/A,,Overcast,10,2013-11-22 01:13:00
7:34 PM,17.6,10.4,73,30.55,10.0,North,18.4,23.0,N/A,,Overcast,10,2013-11-22 01:34:00
7:54 PM,15.8,10.4,79,30.55,10.0,North,21.9,28.8,N/A,,Mostly Cloudy,10,2013-11-22 01:54:00
8:13 PM,15.8,8.6,73,30.56,10.0,North,16.1,27.6,N/A,,Overcast,10,2013-11-22 02:13:00
8:34 PM,15.8,8.6,73,30.57,10.0,North,18.4,27.6,N/A,,Mostly Cloudy,10,2013-11-22 02:34:00
8:54 PM,15.8,8.6,73,30.58,10.0,North,18.4,26.5,N/A,,Mostly Cloudy,360,2013-11-22 02:54:00
9:14 PM,15.8,8.6,73,30.58,10.0,North,19.6,26.5,N/A,,Mostly Cloudy,360,2013-11-22 03:14:00
9:34 PM,15.8,8.6,73,30.59,10.0,North,20.7,25.3,N/A,,Mostly Cloudy,360,2013-11-22 03:34:00
9:54 PM,15.8,8.6,73,30.60,10.0,North,16.1,19.6,N/A,,Scattered Clouds,360,2013-11-22 03:54:00
10:14 PM,15.8,8.6,73,30.61,10.0,North,12.7,16.1,N/A,,Mostly Cloudy,360,2013-11-22 04:14:00
10:34 PM,15.8,8.6,73,30.61,10.0,North,15.0,-,N/A,,Scattered Clouds,360,2013-11-22 04:34:00
10:54 PM,15.8,8.6,73,30.61,10.0,North,12.7,-,N/A,,Clear,360,2013-11-22 04:54:00
11:14 PM,14.0,6.8,73,30.61,10.0,North,12.7,-,N/A,,Clear,360,2013-11-22 05:14:00
11:34 PM,14.0,6.8,73,30.61,10.0,North,13.8,-,N/A,,Clear,350,2013-11-22 05:34:00
11:54 PM,14.0,6.8,73,30.61,10.0,North,10.4,-,N/A,,Clear,360,2013-11-22 05:54:00